Location: Newark
(0.5300°S, 127.4800°E)
Time: 06:40:43
(UTC+00:00)

A-11 Canister half - Pass Details

Date: 25 September 2019
Orbit: 1514 x 1686 km, 47.2° (Epoch: 14 October)

Event Time Altitude Azimuth Distance (km) Brightness Sun altitude
Rises 20:35:20 0° 216° (SW) 4,903 11.3 -11.6°
Reaches altitude 10° 20:38:33 10° 213° (SSW) 3,896 10.8 -10.8°
Maximum altitude 20:48:28 74° 129° (SE) 1,666 9.4 -8.3°
Drops below altitude 10° 20:57:59 10° 46° (NE) 3,751 11.8 -5.9°
Sets 21:01:01 0° 44° (NE) 4,712 12.3 -5.2°
